QPF
0.00 0.00 0.00 0.00 0.00 0.00 0.00 0.00 0.00 0.02 0.00 0.00 0.00 0.00 0.00 0.00 0.00 0.00 0.00 0.00 0.01 0.01 0.00 0.00 0.00 0.03 0.00 0.00 0.00 0.00 0.00 0.00 0.00 0.00 0.00 0.00 0.00 0.00 0.00 0.01 0.01 0.01 0.00
0.00 0.00 0.00 0.00 0.00 0.00 0.00 0.00 0.00 0.00 0.00 0.00 0.00 0.00 0.00 0.00 0.00 0.00 0.00 0.00 0.00 0.00 0.01 0.00 0.00 0.00 0.00 0.00 0.00 0.00 0.00 0.01 0.00 0.00 0.00 0.00 0.00 0.00 0.01 0.00 0.00 0.00 0.00
0.00 0.00 0.00 0.00 0.00 0.00 0.00 0.00 0.00 0.00 0.00 0.00 0.00 0.00 0.00 0.00 0.00 0.00 0.02 0.02 0.01 0.00 0.02 0.00 0.04 0.01 0.00 0.00 0.00 0.00 0.01 0.00 0.00 0.00 0.00 0.00 0.00 0.00 0.00 0.00 0.00 0.00 0.00
0.00 0.00 0.00 0.00 0.00 0.00 0.00 0.00 0.00 0.00 0.00 0.00 0.00 0.00 0.00 0.03 0.03 0.00 0.00 0.00 0.00 0.01 0.03 0.04 0.03 0.00 0.00 0.00 0.00 0.00 0.01 0.00 0.00 0.00 0.00 0.00 0.00 0.00 0.00 0.00 0.00 0.00 0.00
0.00 0.00 0.00 0.00 0.00 0.00 0.00 0.00 0.00 0.00 0.00 0.00 0.00 0.01 0.11 0.15 0.09 0.06 0.00 0.01 0.01 0.01 0.03 0.03 0.01 0.00 0.00 0.00 0.00 0.00 0.00 0.00 0.00 0.00 0.00 0.00 0.00 0.00 0.00 0.00 0.00 0.00 0.00
0.00 0.00 0.00 0.00 0.00 0.00 0.00 0.00 0.00 0.00 0.00 0.00 0.00 0.00 0.01 0.02 0.05 0.06 0.03 0.05 0.03 0.00 0.01 0.02 0.00 0.00 0.00 0.00 0.00 0.00 0.00 0.00 0.00 0.00 0.00 0.00 0.00 0.00 0.00 0.00 0.01 0.04 0.00
0.00 0.00 0.00 0.00 0.00 0.00 0.00 0.00 0.00 0.00 0.00 0.00 0.00 0.00 0.00 0.00 0.03 0.07 0.08 0.01 0.03 0.01 0.00 0.01 0.00 0.00 0.00 0.00 0.00 0.00 0.00 0.00 0.00 0.00 0.00 0.00 0.00 0.00 0.00 0.00 0.00 0.01 0.00
0.00 0.00 0.00 0.00 0.01 0.01 0.00 0.00 0.00 0.00 0.00 0.01 0.00 0.00 0.00 0.04 0.01 0.01 0.08 0.08 0.01 0.01 0.00 0.00 0.00 0.00 0.00 0.00 0.00 0.00 0.00 0.00 0.00 0.00 0.00 0.00 0.00 0.00 0.00 0.00 0.00 0.00 0.00
0.00 0.00 0.00 0.00 0.01 0.05 0.00 0.01 0.02 0.03 0.04 0.03 0.04 0.04 0.08 0.07 0.01 0.02 0.06 0.08 0.01 0.00 0.00 0.00 0.00 0.00 0.00 0.00 0.00 0.00 0.00 0.00 0.00 0.00 0.00 0.00 0.00 0.00 0.00 0.00 0.00 0.01 0.01
0.00 0.00 0.00 0.01 0.01 0.03 0.02 0.00 0.00 0.03 0.02 0.00 0.06 0.07 0.02 0.00 0.00 0.00 0.05 0.07 0.06 0.00 0.00 0.00 0.00 0.00 0.00 0.00 0.00 0.00 0.00 0.00 0.00 0.00 0.00 0.00 0.00 0.00 0.00 0.00 0.00 0.00 0.00
0.00 0.00 0.00 0.00 0.01 0.02 0.02 0.02 0.01 0.00 0.02 0.00 0.02 0.04 0.00 0.00 0.02 0.00 0.01 0.05 0.06 0.03 0.00 0.00 0.00 0.01 0.00 0.00 0.00 0.00 0.00 0.00 0.00 0.00 0.00 0.00 0.00 0.00 0.00 0.00 0.00 0.00 0.00
0.00 0.00 0.00 0.00 0.00 0.00 0.00 0.00 0.00 0.00 0.00 0.00 0.00 0.02 0.02 0.02 0.01 0.01 0.06 0.01 0.00 0.00 0.00 0.00 0.00 0.01 0.00 0.00 0.00 0.00 0.00 0.00 0.00 0.00 0.00 0.00 0.00 0.00 0.00 0.00 0.00 0.00 0.00
0.00 0.00 0.00 0.00 0.00 0.00 0.00 0.00 0.00 0.00 0.04 0.07 0.02 0.04 0.09 0.04 0.02 0.00 0.02 0.00 0.00 0.01 0.00 0.00 0.00 0.00 0.00 0.00 0.00 0.00 0.00 0.00 0.00 0.00 0.00 0.00 0.00 0.00 0.00 0.00 0.00 0.00 0.00
0.00 0.00 0.00 0.00 0.00 0.00 0.00 0.00 0.00 0.00 0.00 0.00 0.00 0.01 0.05 0.02 0.01 0.01 0.00 0.00 0.00 0.05 0.01 0.01 0.00 0.00 0.01 0.00 0.00 0.00 0.00 0.00 0.00 0.00 0.00 0.00 0.00 0.00 0.00 0.00 0.01 0.00 0.00
0.00 0.00 0.00 0.00 0.00 0.00 0.00 0.00 0.00 0.00 0.00 0.00 0.00 0.00 0.00 0.00 0.01 0.01 0.01 0.01 0.07 0.05 0.06 0.03 0.01 0.02 0.01 0.01 0.00 0.00 0.01 0.00 0.00 0.00 0.00 0.00 0.00 0.00 0.01 0.02 0.05 0.06 0.01
0.00 0.00 0.00 0.00 0.00 0.00 0.00 0.00 0.01 0.01 0.01 0.02 0.00 0.00 0.00 0.00 0.02 0.03 0.04 0.05 0.07 0.10 0.10 0.06 0.01 0.00 0.01 0.00 0.00 0.00 0.00 0.00 0.00 0.00 0.00 0.00 0.00 0.00 0.00 0.04 0.08 0.11 0.06
0.00 0.00 0.00 0.00 0.00 0.00 0.00 0.03 0.11 0.14 0.15 0.12 0.04 0.09 0.04 0.02 0.03 0.02 0.03 0.08 0.09 0.13 0.12 0.11 0.08 0.02 0.01 0.00 0.01 0.01 0.00 0.00 0.00 0.00 0.00 0.00 0.00 0.00 0.00 0.00 0.05 0.03 0.05
0.00 0.00 0.00 0.00 0.00 0.00 0.01 0.09 0.15 0.16 0.16 0.16 0.10 0.08 0.07 0.02 0.04 0.03 0.04 0.02 0.08 0.12 0.16 0.15 0.14 0.11 0.02 0.00 0.01 0.00 0.00 0.00 0.00 0.00 0.00 0.00 0.00 0.00 0.00 0.00 0.00 0.00 0.02
0.00 0.00 0.00 0.02 0.01 0.03 0.06 0.04 0.11 0.18 0.21 0.14 0.07 0.02 0.00 0.00 0.01 0.00 0.01 0.01 0.04 0.02 0.09 0.14 0.14 0.14 0.04 0.01 0.00 0.00 0.00 0.00 0.00 0.00 0.00 0.00 0.00 0.00 0.01 0.00 0.00 0.00 0.01
0.00 0.00 0.00 0.03 0.01 0.07 0.04 0.23 0.34 0.20 0.14 0.01 0.00 0.00 0.01 0.00 0.01 0.01 0.00 0.01 0.03 0.03 0.05 0.13 0.13 0.08 0.03 0.00 0.00 0.00 0.01 0.00 0.00 0.00 0.00 0.00 0.01 0.00 0.00 0.00 0.06 0.03 0.06
0.00 0.00 0.00 0.00 0.00 0.00 0.04 0.26 0.24 0.08 0.04 0.01 0.00 0.00 0.00 0.01 0.00 0.01 0.01 0.01 0.01 0.03 0.07 0.07 0.05 0.04 0.03 0.04 0.07 0.06 0.03 0.01 0.01 0.00 0.00 0.00 0.00 0.00 0.00 0.01 0.08 0.08 0.12
0.00 0.00 0.00 0.00 0.00 0.00 0.05 0.02 0.06 0.13 0.07 0.00 0.00 0.00 0.00 0.00 0.01 0.01 0.00 0.00 0.01 0.05 0.07 0.06 0.07 0.05 0.05 0.12 0.13 0.16 0.17 0.11 0.03 0.01 0.02 0.02 0.04 0.05 0.06 0.15 0.12 0.14 0.07
0.00 0.00 0.00 0.00 0.00 0.00 0.00 0.00 0.00 0.01 0.01 0.00 0.00 0.00 0.00 0.00 0.01 0.02 0.03 0.01 0.04 0.07 0.10 0.07 0.03 0.06 0.06 0.11 0.13 0.18 0.18 0.15 0.14 0.12 0.03 0.02 0.07 0.03 0.01 0.02 0.04 0.09 0.07
0.00 0.00 0.04 0.01 0.00 0.00 0.00 0.00 0.00 0.00 0.02 0.00 0.00 0.00 0.00 0.00 0.00 0.01 0.04 0.08 0.10 0.07 0.09 0.14 0.14 0.17 0.17 0.07 0.09 0.08 0.12 0.15 0.14 0.13 0.05 0.00 0.00 0.00 0.00 0.00 0.00 0.01 0.02
0.00 0.00 0.01 0.00 0.00 0.00 0.00 0.00 0.00 0.00 0.01 0.00 0.01 0.00 0.07 0.09 0.03 0.01 0.04 0.09 0.12 0.12 0.08 0.13 0.12 0.10 0.07 0.04 0.02 0.02 0.05 0.03 0.01 0.01 0.03 0.06 0.03 0.00 0.00 0.01 0.03 0.06 0.06
0.00 0.00 0.03 0.00 0.00 0.00 0.00 0.00 0.00 0.00 0.04 0.07 0.04 0.02 0.10 0.16 0.17 0.17 0.16 0.09 0.05 0.06 0.05 0.04 0.03 0.03 0.05 0.04 0.04 0.02 0.05 0.06 0.04 0.06 0.05 0.10 0.09 0.01 0.00 0.00 0.01 0.05 0.18
MSLP
1009.21 1011.19 1012.14 1012.42 1012.67 1012.80 1013.00 1013.15 1013.37 1013.68 1013.90 1014.12 1014.35 1014.59 1014.71 1014.90 1015.04 1015.16 1015.21 1015.29 1015.46 1015.42 1015.42 1015.47 1015.58 1015.81 1015.80 1015.91 1016.06 1016.14 1016.15 1016.23 1016.38 1016.44 1016.51 1016.69 1016.86 1017.02 1017.14 1017.11 1016.92 1016.88 1017.60
1009.47 1010.99 1012.31 1012.66 1012.91 1013.09 1013.30 1013.51 1013.64 1013.90 1014.12 1014.29 1014.55 1014.75 1014.92 1015.03 1015.16 1015.26 1015.36 1015.37 1015.53 1015.62 1015.68 1015.65 1015.73 1015.93 1016.02 1016.08 1016.25 1016.38 1016.49 1016.53 1016.59 1016.61 1016.66 1016.82 1017.05 1017.23 1017.35 1017.31 1016.82 1017.52 1017.84
1009.48 1010.94 1012.00 1012.76 1013.04 1013.36 1013.60 1013.75 1013.92 1014.08 1014.31 1014.55 1014.72 1014.91 1015.10 1015.25 1015.32 1015.33 1015.50 1015.60 1015.63 1015.71 1015.81 1015.87 1016.03 1016.12 1016.22 1016.31 1016.36 1016.49 1016.69 1016.76 1016.71 1016.64 1016.41 1015.78 1016.71 1017.36 1017.49 1017.65 1017.59 1017.87 1018.04
1009.58 1010.60 1011.43 1012.76 1013.08 1013.45 1013.68 1013.88 1014.06 1014.21 1014.46 1014.74 1014.93 1015.11 1015.24 1015.38 1015.41 1015.50 1015.51 1015.64 1015.73 1015.85 1016.02 1016.12 1016.21 1016.25 1016.38 1016.45 1016.48 1016.64 1016.84 1016.92 1016.72 1016.61 1016.01 1015.37 1016.28 1017.52 1017.63 1017.83 1017.99 1018.06 1018.21
1009.57 1010.18 1011.69 1012.71 1013.02 1013.41 1013.74 1013.94 1014.12 1014.31 1014.56 1014.79 1015.02 1015.19 1015.24 1015.40 1015.54 1015.65 1015.69 1015.76 1015.80 1016.02 1016.18 1016.27 1016.31 1016.43 1016.57 1016.65 1016.75 1016.83 1016.92 1016.96 1016.69 1016.40 1015.28 1015.71 1016.22 1017.52 1017.81 1018.02 1018.25 1018.28 1018.38
1009.34 1010.23 1012.35 1012.88 1013.19 1013.51 1013.86 1014.23 1014.34 1014.44 1014.56 1014.82 1015.08 1015.24 1015.34 1015.43 1015.57 1015.76 1015.79 1016.00 1016.02 1016.04 1016.28 1016.30 1016.46 1016.58 1016.69 1016.87 1016.95 1017.04 1017.04 1016.86 1016.71 1015.80 1015.77 1016.24 1016.17 1017.53 1017.90 1018.09 1018.22 1018.43 1018.64
1009.99 1010.81 1012.14 1013.03 1013.47 1013.78 1014.03 1014.36 1014.59 1014.75 1014.87 1015.00 1015.23 1015.37 1015.51 1015.46 1015.59 1015.77 1015.91 1016.09 1016.16 1016.11 1016.26 1016.41 1016.54 1016.65 1016.81 1016.96 1017.11 1017.21 1017.18 1016.98 1016.45 1015.56 1015.96 1016.08 1017.11 1017.79 1018.05 1018.21 1018.48 1018.73 1018.90
1009.22 1010.16 1012.12 1013.29 1013.71 1013.90 1014.11 1014.34 1014.61 1014.76 1015.03 1015.19 1015.26 1015.43 1015.56 1015.65 1015.71 1015.98 1016.06 1016.24 1016.29 1016.35 1016.36 1016.43 1016.60 1016.76 1016.89 1017.05 1017.23 1017.36 1017.33 1017.05 1015.83 1015.43 1015.78 1016.26 1017.50 1017.97 1018.20 1018.47 1018.66 1018.90 1019.10
1009.26 1010.00 1011.61 1012.80 1013.52 1014.07 1014.27 1014.43 1014.71 1014.81 1015.02 1015.19 1015.29 1015.42 1015.42 1015.65 1015.77 1015.92 1016.18 1016.15 1016.25 1016.37 1016.45 1016.54 1016.67 1016.83 1016.97 1017.13 1017.33 1017.48 1017.49 1017.19 1016.53 1015.32 1015.49 1015.98 1017.46 1017.97 1018.21 1018.48 1018.75 1018.93 1019.15
1009.77 1010.41 1011.45 1012.53 1012.79 1013.23 1013.71 1014.40 1014.67 1014.85 1015.02 1015.07 1015.25 1015.45 1015.56 1015.55 1015.66 1015.73 1015.93 1015.94 1016.15 1016.37 1016.48 1016.54 1016.63 1016.81 1017.03 1017.21 1017.36 1017.48 1017.52 1017.17 1016.38 1016.01 1015.53 1016.36 1017.31 1017.89 1018.21 1018.48 1018.71 1018.92 1019.16
1010.14 1010.14 1011.17 1012.24 1012.60 1012.97 1013.34 1013.78 1014.42 1014.67 1014.81 1014.88 1014.94 1015.09 1015.30 1015.05 1014.84 1014.93 1015.04 1015.66 1016.09 1016.25 1016.40 1016.55 1016.61 1016.73 1016.98 1017.24 1017.34 1017.42 1017.45 1016.47 1015.99 1015.40 1014.60 1016.26 1017.01 1017.77 1018.17 1018.34 1018.63 1018.81 1019.07
1010.04 1010.20 1010.45 1011.12 1012.03 1012.52 1012.23 1013.16 1013.64 1013.82 1013.85 1013.91 1013.80 1014.29 1014.45 1014.07 1014.41 1014.69 1015.14 1015.61 1015.90 1016.13 1016.28 1016.45 1016.62 1016.78 1016.91 1016.09 1016.49 1017.12 1016.76 1015.90 1015.84 1015.38 1015.42 1016.33 1016.85 1017.65 1018.10 1018.34 1018.56 1018.77 1018.96
1009.80 1010.04 1010.37 1010.84 1011.37 1011.72 1011.65 1012.37 1013.04 1013.42 1013.40 1013.96 1013.75 1013.87 1014.14 1014.17 1014.24 1013.98 1014.29 1014.77 1015.12 1015.77 1015.45 1015.99 1016.32 1016.27 1015.88 1015.38 1015.54 1015.66 1015.69 1015.51 1015.68 1014.88 1016.00 1016.48 1016.75 1017.46 1017.95 1018.16 1018.36 1018.56 1018.77
1009.29 1009.47 1010.01 1010.61 1011.37 1011.82 1011.79 1012.24 1012.49 1013.09 1013.89 1014.05 1014.42 1014.00 1014.37 1014.24 1014.08 1014.09 1013.66 1013.61 1014.05 1014.97 1014.85 1015.31 1015.00 1015.10 1015.58 1015.48 1015.26 1015.45 1015.25 1014.93 1015.36 1015.31 1016.13 1016.32 1016.66 1017.33 1017.72 1017.91 1018.05 1018.29 1018.54
1008.61 1009.07 1009.84 1010.68 1011.40 1011.81 1012.16 1012.01 1012.46 1012.59 1013.33 1013.98 1014.45 1014.34 1014.00 1013.74 1013.65 1014.01 1013.69 1013.71 1014.59 1014.39 1014.99 1015.38 1015.25 1015.52 1015.24 1015.65 1015.69 1015.48 1015.41 1015.44 1014.80 1015.16 1015.73 1016.13 1016.35 1016.92 1017.43 1017.63 1017.81 1018.00 1018.25
1008.37 1009.07 1009.74 1010.68 1011.31 1011.69 1012.03 1012.17 1012.51 1012.82 1012.69 1013.36 1013.94 1014.15 1014.31 1014.25 1013.90 1013.63 1014.04 1013.94 1014.37 1014.83 1015.20 1015.16 1014.49 1014.79 1015.14 1014.89 1015.07 1015.15 1015.01 1015.00 1015.04 1014.80 1014.58 1015.55 1015.83 1016.23 1016.80 1017.25 1017.35 1017.58 1017.75
1007.91 1008.77 1009.62 1010.83 1011.52 1011.93 1012.09 1012.04 1012.27 1012.60 1012.96 1013.23 1013.27 1013.95 1014.43 1014.43 1014.09 1014.11 1013.81 1014.32 1014.52 1014.93 1015.09 1015.25 1015.36 1014.74 1014.77 1015.20 1015.28 1015.54 1014.98 1015.21 1014.89 1014.61 1014.84 1014.72 1015.34 1015.75 1015.99 1016.28 1016.75 1017.09 1017.31
1007.66 1008.58 1009.63 1010.31 1011.04 1011.64 1011.90 1012.24 1012.09 1012.20 1012.69 1013.00 1013.02 1013.12 1013.75 1014.24 1014.24 1014.07 1013.98 1013.85 1014.36 1014.87 1015.10 1015.19 1015.31 1015.29 1015.07 1014.65 1014.91 1014.99 1014.85 1014.67 1014.60 1014.87 1014.63 1014.51 1014.48 1014.90 1015.61 1015.89 1015.95 1016.28 1016.67
1007.56 1008.55 1009.56 1010.25 1010.77 1011.28 1011.72 1011.81 1011.94 1012.03 1012.26 1012.30 1012.53 1012.21 1013.07 1013.65 1014.07 1014.40 1013.71 1013.50 1014.36 1014.75 1014.95 1015.30 1015.28 1015.38 1014.87 1014.91 1014.75 1014.67 1014.58 1014.43 1014.39 1014.05 1014.29 1014.37 1014.25 1014.24 1014.84 1015.06 1015.52 1015.86 1016.11
1007.38 1008.43 1009.57 1010.37 1010.89 1011.38 1011.60 1011.82 1012.02 1012.19 1011.85 1011.07 1011.17 1011.30 1012.52 1013.26 1013.72 1014.20 1014.12 1013.50 1014.42 1014.88 1015.10 1015.24 1015.35 1015.02 1014.84 1014.50 1014.40 1014.33 1014.06 1014.21 1014.32 1013.97 1013.93 1013.85 1014.08 1014.15 1014.76 1014.73 1015.19 1015.16 1015.34
1006.85 1008.09 1009.06 1009.84 1010.43 1011.03 1011.51 1012.27 1012.21 1011.97 1011.80 1010.94 1011.18 1011.75 1012.26 1012.69 1013.33 1013.88 1014.02 1014.01 1014.16 1014.57 1014.95 1015.21 1015.12 1014.70 1014.44 1014.17 1014.80 1014.32 1014.01 1013.98 1014.16 1013.70 1013.75 1013.66 1013.55 1014.12 1014.55 1014.64 1014.46 1014.24 1014.57
1006.27 1007.37 1008.55 1009.40 1009.76 1010.36 1010.68 1011.89 1011.71 1011.32 1011.36 1010.80 1010.97 1011.46 1011.80 1012.14 1012.78 1013.12 1013.80 1014.04 1014.13 1014.40 1014.86 1015.18 1015.28 1014.89 1014.52 1014.69 1014.85 1014.72 1014.49 1014.11 1013.93 1013.64 1013.58 1013.56 1013.55 1013.41 1014.05 1013.66 1014.29 1014.39 1014.30
1005.73 1007.03 1008.56 1009.49 1009.19 1008.24 1009.67 1010.30 1011.08 1010.49 1011.07 1011.08 1010.90 1011.27 1011.50 1011.66 1012.08 1012.50 1012.97 1013.48 1013.94 1014.34 1014.80 1014.85 1015.05 1015.04 1014.43 1014.53 1014.59 1014.67 1014.53 1014.30 1013.93 1013.75 1013.24 1013.55 1013.91 1013.79 1013.60 1013.42 1013.60 1014.16 1014.30
1005.56 1007.59 1008.66 1008.40 1007.99 1008.93 1009.71 1009.43 1010.12 1010.20 1009.84 1009.53 1010.10 1010.23 1010.70 1011.28 1011.53 1012.12 1012.53 1012.73 1013.40 1014.08 1014.44 1014.46 1014.32 1014.31 1014.50 1014.24 1014.26 1014.21 1014.34 1014.27 1013.88 1013.47 1013.77 1013.99 1014.52 1014.73 1014.76 1014.47 1014.15 1014.14 1014.37
1005.76 1007.76 1007.97 1007.66 1008.92 1009.40 1009.74 1009.51 1009.43 1009.90 1009.45 1009.72 1009.85 1010.12 1010.75 1011.24 1011.08 1011.21 1011.91 1012.46 1013.01 1013.54 1013.69 1014.00 1014.15 1014.14 1014.26 1014.03 1013.27 1013.50 1013.51 1013.29 1013.44 1013.24 1013.11 1014.40 1014.98 1015.49 1015.80 1015.42 1015.13 1015.02 1014.71
1005.98 1007.71 1008.07 1008.59 1009.46 1009.04 1009.57 1009.65 1009.73 1009.65 1009.50 1010.13 1009.87 1009.64 1010.86 1011.44 1011.42 1011.47 1011.77 1012.33 1012.72 1013.02 1013.16 1013.37 1013.59 1013.53 1013.60 1013.59 1013.48 1013.34 1013.31 1013.52 1013.28 1013.16 1013.08 1013.96 1014.85 1015.85 1016.27 1016.08 1015.76 1015.35 1015.26
Thickness
5795 5780 5773 5769 5767 5765 5763 5762 5760 5759 5757 5756 5754 5753 5753 5752 5752 5752 5753 5753 5753 5754 5755 5755 5755 5753 5755 5756 5757 5757 5758 5758 5757 5757 5758 5756 5756 5754 5754 5755 5757 5757 5752
5797 5782 5772 5768 5765 5763 5761 5760 5759 5758 5756 5755 5753 5752 5751 5750 5751 5751 5752 5753 5753 5753 5753 5754 5754 5754 5754 5756 5757 5757 5757 5758 5757 5758 5758 5757 5756 5755 5755 5756 5759 5754 5752
5798 5784 5775 5768 5765 5761 5759 5758 5758 5757 5755 5754 5752 5751 5750 5749 5749 5751 5751 5751 5752 5753 5752 5753 5753 5753 5754 5755 5757 5757 5757 5757 5758 5759 5762 5767 5760 5757 5756 5756 5756 5754 5752
5799 5788 5780 5769 5765 5761 5759 5758 5757 5756 5754 5752 5751 5750 5749 5749 5749 5750 5751 5751 5752 5752 5751 5752 5752 5753 5754 5755 5757 5757 5757 5757 5759 5761 5766 5771 5765 5757 5756 5756 5755 5754 5753
5800 5793 5779 5770 5767 5763 5759 5757 5756 5755 5754 5752 5751 5750 5750 5749 5748 5748 5749 5750 5752 5751 5751 5752 5752 5753 5754 5754 5755 5756 5757 5757 5761 5765 5773 5770 5767 5758 5756 5755 5754 5754 5753
5803 5793 5776 5770 5766 5763 5759 5755 5754 5754 5753 5751 5750 5750 5750 5750 5748 5746 5748 5748 5749 5751 5750 5752 5752 5753 5753 5754 5755 5756 5757 5760 5762 5770 5770 5767 5768 5758 5756 5756 5755 5754 5753
5798 5790 5777 5768 5764 5761 5758 5755 5753 5752 5751 5750 5749 5749 5749 5750 5748 5746 5746 5746 5748 5750 5750 5751 5752 5753 5753 5754 5755 5755 5757 5759 5765 5773 5770 5770 5763 5758 5756 5756 5754 5753 5751
5804 5795 5778 5766 5762 5760 5758 5756 5754 5752 5751 5750 5750 5749 5748 5748 5747 5745 5743 5745 5747 5749 5750 5751 5751 5752 5753 5754 5754 5754 5755 5759 5770 5774 5773 5769 5762 5758 5757 5755 5754 5753 5751
5805 5797 5783 5771 5765 5758 5756 5755 5753 5752 5751 5750 5750 5750 5749 5748 5748 5747 5744 5745 5747 5748 5749 5750 5752 5752 5753 5754 5753 5753 5754 5758 5765 5776 5775 5772 5763 5760 5759 5757 5755 5753 5752
5800 5795 5785 5775 5772 5767 5762 5757 5755 5752 5750 5750 5748 5748 5748 5748 5748 5749 5747 5747 5747 5748 5749 5751 5752 5752 5752 5753 5753 5754 5755 5759 5766 5772 5775 5771 5765 5762 5760 5757 5756 5754 5752
5796 5799 5789 5779 5775 5771 5767 5763 5757 5754 5752 5751 5751 5749 5748 5750 5753 5754 5754 5750 5748 5749 5749 5750 5752 5754 5753 5753 5753 5754 5755 5764 5770 5777 5785 5774 5768 5763 5760 5759 5757 5756 5753
5793 5797 5798 5791 5781 5775 5777 5769 5764 5761 5758 5757 5756 5753 5753 5757 5755 5755 5753 5750 5750 5749 5750 5750 5751 5753 5753 5761 5759 5756 5760 5768 5772 5777 5779 5774 5770 5764 5761 5759 5757 5756 5755
5799 5800 5800 5795 5788 5782 5781 5774 5766 5761 5757 5751 5752 5753 5753 5755 5755 5758 5758 5756 5755 5752 5755 5753 5752 5754 5759 5765 5767 5767 5767 5771 5773 5780 5774 5772 5770 5765 5762 5760 5759 5757 5756
5805 5806 5805 5800 5790 5783 5780 5773 5769 5761 5751 5746 5741 5749 5748 5751 5754 5757 5762 5763 5762 5756 5759 5757 5761 5762 5761 5764 5767 5767 5770 5774 5774 5776 5772 5772 5770 5765 5762 5761 5760 5758 5757
5813 5812 5807 5800 5791 5786 5780 5776 5770 5766 5755 5746 5744 5745 5750 5754 5757 5755 5761 5762 5757 5759 5755 5755 5758 5758 5762 5761 5763 5766 5767 5770 5776 5775 5773 5772 5771 5766 5762 5760 5760 5759 5757
5819 5813 5809 5800 5794 5788 5782 5778 5770 5763 5761 5753 5747 5747 5746 5748 5753 5757 5757 5759 5757 5755 5753 5754 5761 5762 5761 5764 5765 5766 5768 5770 5772 5774 5779 5774 5772 5769 5764 5760 5760 5759 5758
5826 5818 5809 5799 5793 5786 5781 5778 5774 5767 5759 5753 5750 5748 5744 5745 5749 5751 5758 5755 5755 5754 5753 5752 5752 5759 5762 5760 5762 5761 5766 5766 5770 5774 5773 5776 5772 5770 5768 5766 5761 5759 5757
5830 5819 5810 5804 5795 5787 5780 5775 5775 5771 5763 5756 5753 5749 5746 5744 5745 5748 5753 5756 5753 5752 5751 5753 5753 5753 5757 5762 5762 5763 5765 5768 5770 5769 5772 5773 5774 5773 5769 5766 5766 5763 5759
5831 5820 5808 5801 5794 5786 5780 5776 5774 5772 5768 5762 5757 5759 5753 5749 5745 5745 5752 5756 5751 5750 5751 5750 5752 5752 5757 5758 5761 5763 5765 5768 5770 5772 5771 5771 5773 5773 5772 5769 5766 5762 5760
5832 5823 5810 5800 5791 5784 5776 5768 5764 5766 5770 5774 5767 5763 5755 5751 5748 5745 5747 5755 5750 5748 5748 5748 5749 5753 5756 5759 5761 5762 5767 5768 5768 5771 5770 5770 5770 5770 5766 5765 5764 5765 5764
5835 5821 5811 5802 5796 5788 5774 5753 5752 5761 5766 5775 5769 5759 5756 5754 5748 5745 5746 5749 5750 5749 5746 5746 5748 5752 5754 5760 5752 5758 5763 5766 5764 5769 5768 5769 5770 5766 5764 5766 5768 5768 5766
5836 5826 5817 5805 5801 5793 5784 5766 5761 5768 5768 5776 5770 5761 5758 5758 5753 5749 5745 5744 5744 5745 5743 5741 5741 5745 5750 5752 5745 5747 5742 5752 5759 5764 5765 5764 5766 5769 5764 5769 5751 5758 5764
5837 5827 5814 5804 5803 5806 5786 5783 5771 5776 5770 5766 5766 5760 5759 5758 5757 5753 5749 5747 5743 5742 5739 5740 5740 5740 5744 5749 5749 5744 5738 5737 5746 5756 5761 5762 5760 5765 5765 5767 5766 5761 5759
5837 5823 5810 5812 5813 5802 5786 5787 5778 5773 5771 5775 5768 5768 5765 5759 5757 5754 5750 5749 5746 5742 5739 5741 5745 5744 5743 5742 5747 5749 5747 5745 5736 5740 5752 5753 5751 5750 5750 5753 5755 5755 5753
5835 5818 5814 5814 5800 5795 5789 5787 5784 5774 5776 5772 5768 5765 5760 5756 5757 5756 5752 5749 5745 5743 5743 5741 5740 5741 5741 5742 5751 5748 5750 5753 5752 5748 5745 5739 5741 5740 5737 5741 5742 5743 5746
5831 5816 5811 5802 5791 5796 5788 5785 5781 5777 5773 5762 5762 5764 5755 5751 5751 5751 5749 5746 5745 5744 5744 5743 5743 5745 5745 5745 5746 5749 5747 5742 5744 5746 5747 5742 5736 5731 5730 5731 5734 5737 5737